Tracking 28052 objects as of 22-Sep-2023
HD Live streaming from Space Station
objects crossing your sky now

COSMOS 839 DEB

Track COSMOS 839 DEB now!
10-day predictions


NORAD ID: 10622
Int'l Code: 1976-067AW
Perigee: 952.9 km
Apogee: 2,128.3 km
Inclination: 65.9 °
Period: 116.7 minutes
Semi major axis: 7911 km
RCS: 0.1409 m2 (medium)
Launch date: July 8, 1976
Source: Commonwealth of Independent States (former USSR) (CIS)
Launch site: PLESETSK MISSILE AND SPACE COMPLEX (PKMTR)

Note: This is SATELLITE DEBRIS
Your satellite tracking list
Your tracking list is empty




NASA's NSSDC Master Catalog

Two Line Element Set (TLE):
1 10622U 76067AW  23264.87140260 -.00000044  00000-0  33252-4 0  9990
2 10622  65.9078  11.2297 0742789 163.8877 292.5272 12.33692275125633
Source of the keplerian elements: AFSPC